GEFSSGP_prec_meanprecacc_096.txt.gz
Total_Precipitation_Accumulation
0.00 0.00 0.02 0.11 0.47 0.79 0.74 0.47 0.39 0.31 0.31 0.26 0.28 0.28 0.32 0.45 0.64 0.83 0.35 0.09 0.02 0.01 0.02 0.08 0.13 0.13 0.11 0.10 0.11 0.14 0.15 0.15 0.14 0.14 0.14 0.13 0.10 0.07 0.06 0.05 0.05 0.05 0.05 0.04 0.04 0.05 0.04 0.06 0.07
0.00 0.00 0.03 0.16 0.46 0.68 0.55 0.41 0.33 0.24 0.26 0.31 0.44 0.43 0.34 0.41 0.41 0.34 0.21 0.12 0.04 0.02 0.02 0.03 0.09 0.12 0.11 0.11 0.12 0.13 0.13 0.12 0.11 0.11 0.11 0.10 0.08 0.06 0.05 0.06 0.06 0.07 0.06 0.06 0.06 0.05 0.06 0.07 0.07
0.00 0.01 0.05 0.16 0.27 0.31 0.28 0.18 0.18 0.24 0.33 0.43 0.48 0.48 0.45 0.44 0.34 0.27 0.19 0.12 0.10 0.06 0.04 0.04 0.07 0.09 0.11 0.13 0.13 0.12 0.12 0.11 0.10 0.09 0.10 0.08 0.07 0.06 0.06 0.06 0.07 0.09 0.10 0.11 0.08 0.07 0.08 0.08 0.08
0.01 0.03 0.11 0.14 0.08 0.06 0.07 0.10 0.17 0.29 0.49 0.73 0.72 0.58 0.45 0.34 0.25 0.20 0.24 0.17 0.14 0.10 0.06 0.06 0.09 0.09 0.11 0.12 0.12 0.12 0.11 0.11 0.11 0.10 0.10 0.09 0.08 0.08 0.07 0.07 0.08 0.11 0.13 0.13 0.12 0.11 0.10 0.08 0.08
0.01 0.03 0.11 0.10 0.04 0.03 0.05 0.11 0.22 0.36 0.53 0.72 0.76 0.68 0.59 0.41 0.29 0.25 0.21 0.17 0.18 0.13 0.07 0.07 0.13 0.13 0.13 0.13 0.15 0.14 0.12 0.11 0.11 0.11 0.11 0.11 0.10 0.10 0.10 0.09 0.10 0.11 0.13 0.13 0.13 0.14 0.12 0.10 0.09
0.00 0.02 0.04 0.04 0.02 0.03 0.06 0.13 0.24 0.35 0.52 0.67 0.92 0.94 0.73 0.51 0.48 0.40 0.26 0.19 0.20 0.17 0.10 0.11 0.17 0.19 0.18 0.18 0.19 0.18 0.15 0.14 0.14 0.13 0.14 0.14 0.12 0.13 0.14 0.14 0.15 0.15 0.15 0.15 0.15 0.16 0.16 0.14 0.13
0.00 0.01 0.01 0.01 0.02 0.04 0.06 0.13 0.23 0.37 0.52 0.78 1.05 1.08 0.76 0.56 0.53 0.49 0.41 0.33 0.31 0.25 0.18 0.15 0.17 0.18 0.19 0.23 0.25 0.23 0.20 0.18 0.17 0.17 0.17 0.16 0.14 0.16 0.17 0.20 0.22 0.21 0.21 0.19 0.20 0.20 0.21 0.21 0.19
0.00 0.00 0.01 0.01 0.01 0.05 0.10 0.15 0.27 0.46 0.64 0.86 1.02 1.11 1.02 0.63 0.51 0.57 0.63 0.60 0.62 0.47 0.34 0.26 0.24 0.28 0.24 0.23 0.25 0.26 0.23 0.22 0.21 0.20 0.20 0.21 0.25 0.30 0.35 0.35 0.33 0.33 0.33 0.34 0.36 0.36 0.38 0.38 0.34
0.00 0.01 0.01 0.00 0.02 0.09 0.13 0.17 0.24 0.33 0.52 0.73 0.88 0.93 0.79 0.60 0.61 0.76 0.90 0.78 0.75 0.73 0.56 0.48 0.42 0.33 0.35 0.34 0.31 0.39 0.38 0.39 0.41 0.46 0.43 0.42 0.48 0.62 0.73 0.64 0.63 0.64 0.65 0.69 0.75 0.76 0.78 0.73 0.59
0.00 0.00 0.00 0.00 0.00 0.05 0.11 0.16 0.24 0.31 0.68 1.24 1.26 0.90 0.66 0.75 0.88 0.95 1.00 0.93 0.86 0.83 0.67 0.67 0.63 0.50 0.48 0.49 0.67 0.86 0.80 0.87 0.83 0.96 0.87 0.91 0.95 0.83 0.67 0.76 0.89 1.01 1.20 1.28 1.35 1.40 1.37 1.23 1.02
0.00 0.00 0.00 0.00 0.01 0.01 0.04 0.10 0.18 0.36 0.80 1.44 1.63 1.21 1.00 1.05 1.28 1.18 1.13 1.13 1.14 1.02 0.92 0.70 0.76 0.67 0.70 0.82 0.98 1.14 1.19 1.20 1.17 1.22 1.23 1.35 1.31 1.11 1.00 1.16 1.40 1.55 1.71 1.81 2.04 2.04 1.68 1.65 1.69
0.00 0.00 0.00 0.00 0.01 0.01 0.08 0.15 0.23 0.29 0.71 1.06 1.03 0.93 1.07 1.21 1.36 1.44 1.38 1.47 1.36 1.25 1.25 1.10 1.13 1.05 1.03 1.05 1.08 1.10 1.04 1.06 1.16 1.26 1.35 1.50 1.50 1.52 1.49 1.55 1.63 1.77 1.98 2.23 2.31 2.30 2.14 2.27 2.22
0.00 0.00 0.00 0.01 0.03 0.04 0.09 0.13 0.23 0.35 0.49 0.61 0.58 0.77 1.18 1.40 1.59 1.78 1.86 1.96 1.91 1.87 1.81 1.71 1.69 1.48 1.26 1.12 1.03 0.93 0.89 0.85 0.94 1.05 1.11 1.21 1.45 1.60 1.60 1.44 1.44 1.47 1.70 2.04 2.35 2.38 2.59 2.67 2.45
0.00 0.00 0.01 0.03 0.03 0.05 0.07 0.10 0.24 0.40 0.44 0.57 0.72 0.95 1.31 1.67 1.92 2.11 2.58 2.84 2.95 2.82 2.54 2.36 2.25 1.78 1.52 1.32 1.13 1.01 0.84 0.85 0.87 0.84 0.92 1.09 1.24 1.40 1.37 1.35 1.41 1.45 1.46 1.61 1.99 2.24 2.46 2.39 2.15
0.00 0.02 0.05 0.06 0.04 0.05 0.06 0.17 0.38 0.50 0.68 0.71 0.90 1.13 1.44 1.91 2.30 2.71 3.08 3.63 3.91 3.81 3.24 2.74 2.47 2.12 1.82 1.64 1.35 1.10 0.94 0.84 0.85 0.79 0.82 0.89 0.98 1.11 1.13 1.14 1.13 1.19 1.20 1.22 1.36 1.59 1.77 1.72 1.63
0.01 0.08 0.17 0.10 0.06 0.07 0.10 0.42 0.63 0.54 0.82 1.15 1.09 1.38 1.75 2.16 2.52 3.10 3.66 4.29 4.76 4.75 4.02 3.25 2.63 2.53 2.33 2.04 1.52 1.11 0.91 0.77 0.68 0.63 0.60 0.62 0.65 0.68 0.70 0.71 0.69 0.72 0.69 0.73 0.86 0.97 1.09 1.20 1.32
0.03 0.07 0.15 0.17 0.11 0.10 0.18 0.58 0.75 0.53 0.66 0.97 1.20 1.45 1.86 2.14 2.36 2.86 3.40 4.14 4.67 5.07 4.72 3.84 3.53 3.29 2.59 1.86 1.28 0.95 0.75 0.60 0.51 0.53 0.47 0.45 0.45 0.45 0.50 0.50 0.50 0.45 0.42 0.44 0.46 0.58 0.70 0.81 0.91
0.02 0.04 0.09 0.21 0.16 0.17 0.25 0.44 0.70 0.72 0.87 1.09 1.24 1.38 1.65 1.77 1.90 2.33 2.81 3.21 3.69 4.11 3.91 3.52 3.34 2.79 2.02 1.39 1.02 0.74 0.56 0.42 0.35 0.36 0.36 0.33 0.35 0.36 0.41 0.39 0.37 0.33 0.32 0.36 0.41 0.48 0.49 0.51 0.55
0.02 0.04 0.08 0.15 0.16 0.23 0.35 0.47 0.65 0.81 1.02 1.18 1.20 1.18 1.22 1.33 1.56 1.79 2.09 2.42 2.51 2.56 2.51 2.51 2.39 1.98 1.42 1.02 0.69 0.52 0.43 0.33 0.25 0.22 0.22 0.23 0.26 0.31 0.39 0.32 0.35 0.33 0.29 0.29 0.31 0.35 0.36 0.33 0.32
0.03 0.06 0.11 0.14 0.14 0.19 0.34 0.60 0.74 0.81 0.84 0.91 0.99 0.97 0.95 1.03 1.12 1.22 1.38 1.65 1.63 1.68 1.75 1.76 1.74 1.42 0.99 0.75 0.56 0.48 0.41 0.28 0.21 0.17 0.16 0.13 0.14 0.19 0.26 0.34 0.28 0.28 0.29 0.28 0.27 0.30 0.29 0.26 0.27
0.04 0.05 0.06 0.10 0.11 0.19 0.35 0.83 0.91 0.79 0.70 0.61 0.71 0.76 0.71 0.72 0.72 0.73 0.81 0.97 1.21 1.51 1.46 1.31 1.27 1.14 0.87 0.70 0.53 0.45 0.38 0.30 0.22 0.20 0.16 0.13 0.11 0.13 0.17 0.24 0.26 0.29 0.26 0.30 0.35 0.32 0.30 0.24 0.21
0.04 0.03 0.02 0.02 0.07 0.30 0.42 0.85 0.92 0.78 0.76 0.57 0.53 0.53 0.43 0.35 0.39 0.49 0.54 0.64 0.82 1.02 1.09 1.09 1.07 1.05 0.81 0.63 0.45 0.34 0.26 0.23 0.18 0.18 0.16 0.13 0.12 0.11 0.10 0.11 0.16 0.24 0.27 0.35 0.27 0.30 0.32 0.28 0.22
0.01 0.01 0.01 0.03 0.10 0.27 0.39 0.72 0.91 0.71 0.78 0.53 0.34 0.23 0.15 0.14 0.17 0.30 0.37 0.46 0.53 0.59 0.73 0.86 1.04 1.14 0.87 0.65 0.49 0.39 0.31 0.25 0.19 0.17 0.18 0.15 0.15 0.15 0.14 0.12 0.12 0.13 0.19 0.27 0.30 0.36 0.33 0.34 0.30
0.01 0.02 0.08 0.17 0.29 0.61 0.60 0.58 0.85 0.60 0.40 0.23 0.15 0.09 0.07 0.07 0.10 0.19 0.24 0.32 0.41 0.47 0.52 0.61 0.80 0.97 0.86 0.68 0.52 0.47 0.45 0.37 0.28 0.22 0.20 0.21 0.23 0.24 0.22 0.20 0.21 0.21 0.19 0.18 0.20 0.24 0.31 0.36 0.37
0.02 0.03 0.16 0.37 0.63 0.82 0.48 0.59 0.91 0.44 0.23 0.11 0.07 0.05 0.04 0.04 0.06 0.09 0.14 0.18 0.29 0.35 0.35 0.38 0.53 0.65 0.64 0.55 0.50 0.49 0.57 0.55 0.48 0.38 0.32 0.29 0.27 0.28 0.27 0.24 0.26 0.28 0.28 0.25 0.20 0.17 0.21 0.29 0.34
0.02 0.02 0.06 0.12 0.24 0.39 0.44 1.01 0.82 0.23 0.12 0.07 0.04 0.03 0.04 0.03 0.03 0.04 0.07 0.12 0.18 0.23 0.26 0.30 0.39 0.46 0.48 0.42 0.42 0.42 0.42 0.40 0.45 0.48 0.41 0.38 0.37 0.32 0.27 0.24 0.24 0.27 0.30 0.32 0.29 0.23 0.22 0.24 0.28
0.02 0.02 0.03 0.04 0.06 0.23 0.53 0.71 0.39 0.10 0.06 0.05 0.03 0.03 0.02 0.02 0.01 0.01 0.03 0.07 0.10 0.14 0.18 0.20 0.28 0.34 0.35 0.35 0.34 0.31 0.30 0.28 0.31 0.29 0.25 0.26 0.36 0.37 0.31 0.25 0.23 0.25 0.27 0.31 0.33 0.32 0.31 0.29 0.26
0.03 0.02 0.02 0.02 0.05 0.16 0.38 0.60 0.55 0.22 0.11 0.07 0.04 0.02 0.02 0.01 0.01 0.01 0.02 0.04 0.08 0.10 0.15 0.18 0.23 0.26 0.27 0.30 0.30 0.26 0.30 0.29 0.32 0.26 0.20 0.18 0.21 0.24 0.27 0.24 0.21 0.21 0.23 0.29 0.33 0.37 0.43 0.44 0.40
0.04 0.03 0.03 0.03 0.04 0.08 0.24 0.37 0.37 0.24 0.17 0.11 0.05 0.03 0.05 0.04 0.02 0.02 0.03 0.03 0.04 0.08 0.11 0.14 0.20 0.23 0.22 0.27 0.29 0.32 0.31 0.28 0.28 0.27 0.22 0.19 0.18 0.18 0.18 0.20 0.20 0.19 0.19 0.23 0.28 0.31 0.43 0.56 0.64
0.05 0.06 0.06 0.05 0.05 0.06 0.10 0.16 0.15 0.15 0.16 0.13 0.08 0.04 0.05 0.05 0.03 0.04 0.04 0.03 0.03 0.07 0.11 0.13 0.17 0.19 0.19 0.25 0.32 0.31 0.34 0.38 0.35 0.29 0.27 0.26 0.25 0.23 0.22 0.22 0.22 0.20 0.17 0.19 0.23 0.27 0.32 0.44 0.61

GEFSSGP_prec_meanprecacc_102.txt.gz
Total_Precipitation_Accumulation
0.00 0.01 0.06 0.20 0.68 0.91 0.79 0.48 0.39 0.31 0.31 0.27 0.28 0.28 0.33 0.46 0.65 0.87 0.41 0.11 0.03 0.01 0.02 0.08 0.14 0.13 0.11 0.10 0.11 0.15 0.15 0.16 0.15 0.14 0.14 0.13 0.10 0.07 0.06 0.05 0.05 0.05 0.05 0.05 0.06 0.06 0.06 0.07 0.09
0.00 0.02 0.08 0.33 0.68 0.76 0.57 0.42 0.33 0.24 0.26 0.32 0.45 0.44 0.35 0.42 0.43 0.36 0.23 0.13 0.05 0.02 0.02 0.03 0.09 0.12 0.11 0.11 0.12 0.14 0.14 0.12 0.12 0.11 0.11 0.11 0.09 0.06 0.06 0.06 0.07 0.08 0.07 0.08 0.07 0.07 0.07 0.08 0.08
0.02 0.05 0.12 0.36 0.47 0.37 0.30 0.19 0.19 0.24 0.34 0.43 0.49 0.50 0.50 0.48 0.38 0.32 0.23 0.14 0.12 0.06 0.04 0.04 0.07 0.09 0.12 0.13 0.13 0.13 0.13 0.12 0.10 0.10 0.10 0.09 0.08 0.07 0.06 0.07 0.08 0.10 0.11 0.11 0.08 0.08 0.10 0.10 0.10
0.03 0.08 0.18 0.27 0.19 0.09 0.09 0.11 0.18 0.29 0.49 0.73 0.73 0.63 0.57 0.39 0.31 0.25 0.29 0.22 0.18 0.11 0.06 0.06 0.09 0.09 0.11 0.12 0.13 0.12 0.11 0.11 0.12 0.11 0.11 0.09 0.09 0.09 0.08 0.08 0.09 0.11 0.13 0.14 0.12 0.12 0.12 0.09 0.10
0.02 0.07 0.19 0.18 0.07 0.06 0.07 0.12 0.22 0.36 0.54 0.73 0.77 0.75 0.72 0.46 0.33 0.29 0.25 0.22 0.21 0.15 0.08 0.07 0.13 0.13 0.13 0.13 0.15 0.14 0.12 0.12 0.12 0.11 0.12 0.12 0.11 0.11 0.11 0.10 0.11 0.12 0.13 0.13 0.14 0.15 0.14 0.11 0.10
0.01 0.04 0.09 0.09 0.05 0.05 0.08 0.14 0.24 0.36 0.53 0.71 0.94 1.00 0.84 0.60 0.53 0.44 0.31 0.27 0.26 0.22 0.12 0.11 0.17 0.19 0.18 0.18 0.19 0.19 0.16 0.14 0.14 0.14 0.15 0.15 0.13 0.14 0.15 0.15 0.15 0.15 0.15 0.16 0.16 0.16 0.16 0.15 0.14
0.00 0.01 0.04 0.06 0.05 0.05 0.07 0.14 0.24 0.38 0.52 0.80 1.09 1.16 0.89 0.67 0.59 0.55 0.48 0.43 0.51 0.39 0.26 0.21 0.19 0.19 0.20 0.24 0.26 0.24 0.20 0.18 0.17 0.18 0.17 0.16 0.15 0.16 0.18 0.21 0.22 0.22 0.21 0.20 0.20 0.20 0.22 0.22 0.20
0.00 0.01 0.03 0.04 0.03 0.05 0.10 0.15 0.28 0.47 0.64 0.87 1.05 1.17 1.16 0.73 0.58 0.66 0.74 0.78 0.96 0.82 0.57 0.42 0.30 0.30 0.24 0.24 0.26 0.27 0.24 0.22 0.21 0.21 0.21 0.22 0.25 0.30 0.35 0.35 0.33 0.33 0.33 0.34 0.37 0.36 0.38 0.39 0.36
0.00 0.01 0.02 0.01 0.02 0.10 0.13 0.17 0.24 0.34 0.53 0.75 0.90 0.99 0.87 0.73 0.74 0.86 1.08 0.94 0.93 1.00 0.78 0.67 0.52 0.37 0.37 0.34 0.32 0.40 0.39 0.39 0.41 0.46 0.43 0.43 0.48 0.62 0.74 0.64 0.63 0.64 0.65 0.69 0.75 0.77 0.79 0.74 0.61
0.00 0.00 0.01 0.00 0.01 0.05 0.11 0.16 0.24 0.33 0.70 1.26 1.29 0.93 0.71 0.84 0.97 1.05 1.19 1.12 1.06 1.05 0.82 0.78 0.76 0.56 0.52 0.50 0.68 0.87 0.80 0.87 0.84 0.96 0.87 0.92 0.96 0.84 0.68 0.78 0.90 1.02 1.21 1.29 1.36 1.41 1.38 1.25 1.04
0.00 0.00 0.00 0.00 0.01 0.01 0.04 0.10 0.19 0.40 0.82 1.46 1.64 1.23 1.03 1.10 1.37 1.32 1.36 1.44 1.44 1.24 1.08 0.81 0.89 0.77 0.76 0.85 0.99 1.14 1.20 1.20 1.17 1.22 1.23 1.36 1.33 1.12 1.02 1.17 1.41 1.57 1.72 1.82 2.05 2.06 1.70 1.69 1.74
0.00 0.00 0.00 0.00 0.01 0.01 0.08 0.15 0.24 0.32 0.74 1.07 1.04 0.94 1.10 1.27 1.49 1.56 1.51 1.66 1.59 1.45 1.42 1.27 1.25 1.19 1.12 1.11 1.11 1.11 1.05 1.07 1.16 1.27 1.36 1.52 1.52 1.54 1.51 1.56 1.64 1.77 2.00 2.25 2.33 2.33 2.20 2.34 2.30
0.00 0.00 0.00 0.02 0.03 0.04 0.10 0.13 0.24 0.37 0.51 0.63 0.60 0.78 1.20 1.45 1.72 1.94 2.09 2.26 2.21 2.18 2.06 1.95 1.91 1.68 1.42 1.23 1.08 0.96 0.91 0.87 0.96 1.06 1.12 1.22 1.46 1.61 1.61 1.45 1.46 1.49 1.73 2.07 2.38 2.43 2.64 2.74 2.53
0.00 0.00 0.01 0.03 0.03 0.05 0.07 0.10 0.26 0.43 0.46 0.59 0.74 0.97 1.34 1.75 2.08 2.26 2.83 3.12 3.22 3.20 2.97 2.65 2.53 2.06 1.73 1.52 1.21 1.04 0.88 0.88 0.89 0.86 0.92 1.10 1.25 1.41 1.38 1.36 1.42 1.47 1.49 1.64 2.02 2.27 2.48 2.42 2.22
0.00 0.02 0.05 0.06 0.04 0.05 0.06 0.17 0.39 0.52 0.70 0.73 0.92 1.14 1.46 1.99 2.39 2.80 3.26 3.85 4.13 4.18 3.74 3.11 2.78 2.41 2.06 1.82 1.44 1.16 0.99 0.89 0.87 0.81 0.83 0.91 0.99 1.11 1.13 1.14 1.14 1.19 1.23 1.25 1.39 1.62 1.79 1.74 1.67
0.01 0.08 0.17 0.11 0.06 0.07 0.11 0.42 0.64 0.55 0.84 1.17 1.10 1.38 1.77 2.22 2.60 3.20 3.83 4.50 4.95 4.99 4.34 3.58 2.92 2.85 2.57 2.19 1.64 1.22 0.98 0.84 0.72 0.67 0.63 0.63 0.66 0.69 0.71 0.71 0.70 0.72 0.73 0.79 0.89 1.00 1.12 1.24 1.38
0.03 0.07 0.15 0.18 0.11 0.10 0.18 0.58 0.75 0.54 0.67 0.98 1.21 1.46 1.87 2.18 2.43 2.96 3.55 4.30 4.85 5.28 4.97 4.21 3.91 3.63 2.89 2.05 1.46 1.10 0.83 0.68 0.57 0.57 0.50 0.48 0.47 0.47 0.50 0.50 0.50 0.45 0.44 0.48 0.50 0.61 0.73 0.85 0.95
0.02 0.04 0.10 0.21 0.17 0.17 0.25 0.44 0.70 0.73 0.88 1.10 1.24 1.39 1.66 1.79 1.94 2.39 2.91 3.33 3.86 4.29 4.10 3.82 3.77 3.14 2.34 1.63 1.25 0.94 0.72 0.58 0.46 0.42 0.44 0.40 0.39 0.38 0.42 0.39 0.38 0.33 0.33 0.38 0.43 0.49 0.51 0.53 0.59
0.02 0.04 0.08 0.15 0.16 0.23 0.36 0.47 0.66 0.82 1.04 1.19 1.22 1.20 1.24 1.35 1.58 1.82 2.14 2.52 2.71 2.79 2.73 2.76 2.73 2.32 1.74 1.29 0.90 0.70 0.62 0.49 0.36 0.28 0.30 0.32 0.31 0.35 0.41 0.33 0.35 0.33 0.29 0.30 0.32 0.36 0.37 0.35 0.34
0.03 0.06 0.11 0.14 0.14 0.19 0.34 0.61 0.76 0.84 0.86 0.93 1.03 0.99 0.97 1.05 1.14 1.25 1.43 1.72 1.77 1.88 1.98 1.95 1.95 1.67 1.22 0.99 0.76 0.66 0.58 0.44 0.32 0.25 0.24 0.21 0.20 0.23 0.29 0.36 0.28 0.29 0.29 0.29 0.28 0.32 0.30 0.27 0.28
0.04 0.05 0.06 0.10 0.11 0.19 0.35 0.85 0.93 0.82 0.73 0.64 0.75 0.78 0.73 0.74 0.74 0.75 0.84 1.02 1.27 1.64 1.66 1.46 1.42 1.30 1.05 0.90 0.75 0.68 0.61 0.48 0.36 0.29 0.22 0.19 0.16 0.17 0.20 0.25 0.27 0.30 0.26 0.30 0.35 0.32 0.31 0.24 0.22
0.04 0.03 0.02 0.02 0.07 0.30 0.42 0.86 0.95 0.81 0.80 0.61 0.57 0.55 0.45 0.37 0.41 0.51 0.57 0.67 0.87 1.11 1.26 1.28 1.24 1.20 0.98 0.80 0.65 0.54 0.45 0.35 0.27 0.25 0.21 0.18 0.16 0.15 0.13 0.13 0.18 0.25 0.27 0.35 0.27 0.30 0.32 0.29 0.22
0.01 0.01 0.01 0.03 0.10 0.27 0.40 0.73 0.94 0.76 0.84 0.59 0.37 0.25 0.18 0.15 0.19 0.32 0.40 0.50 0.59 0.70 0.89 1.07 1.23 1.32 1.04 0.80 0.64 0.56 0.49 0.38 0.30 0.26 0.26 0.21 0.21 0.19 0.17 0.16 0.15 0.15 0.20 0.27 0.30 0.36 0.33 0.34 0.30
0.01 0.02 0.08 0.17 0.29 0.61 0.60 0.59 0.88 0.66 0.44 0.27 0.18 0.11 0.09 0.09 0.12 0.20 0.26 0.35 0.47 0.55 0.63 0.76 0.96 1.15 1.05 0.84 0.67 0.61 0.57 0.49 0.39 0.30 0.26 0.26 0.28 0.29 0.27 0.24 0.23 0.23 0.20 0.18 0.20 0.25 0.31 0.37 0.38
0.02 0.03 0.16 0.37 0.63 0.82 0.49 0.62 0.96 0.52 0.31 0.18 0.12 0.08 0.06 0.06 0.07 0.11 0.16 0.20 0.32 0.39 0.40 0.45 0.65 0.80 0.80 0.71 0.62 0.60 0.66 0.64 0.56 0.45 0.36 0.32 0.30 0.31 0.31 0.29 0.28 0.30 0.29 0.26 0.21 0.18 0.22 0.30 0.35
0.02 0.02 0.06 0.12 0.24 0.40 0.47 1.07 0.89 0.32 0.19 0.15 0.11 0.09 0.07 0.06 0.05 0.05 0.08 0.13 0.20 0.25 0.30 0.34 0.46 0.57 0.61 0.55 0.53 0.52 0.51 0.47 0.51 0.54 0.45 0.40 0.38 0.34 0.30 0.29 0.27 0.29 0.32 0.33 0.30 0.24 0.22 0.24 0.28
0.02 0.02 0.03 0.04 0.06 0.24 0.57 0.76 0.46 0.18 0.15 0.15 0.12 0.09 0.08 0.09 0.07 0.04 0.04 0.09 0.12 0.16 0.21 0.23 0.33 0.42 0.45 0.45 0.43 0.41 0.41 0.36 0.37 0.35 0.31 0.30 0.39 0.39 0.35 0.30 0.28 0.29 0.31 0.34 0.35 0.33 0.32 0.29 0.26
0.03 0.02 0.02 0.02 0.05 0.17 0.42 0.65 0.64 0.34 0.24 0.21 0.16 0.10 0.07 0.07 0.06 0.05 0.06 0.08 0.09 0.14 0.19 0.22 0.28 0.35 0.38 0.39 0.36 0.34 0.41 0.40 0.42 0.35 0.29 0.25 0.27 0.29 0.32 0.33 0.30 0.28 0.30 0.34 0.38 0.41 0.46 0.47 0.42
0.04 0.03 0.03 0.03 0.04 0.09 0.27 0.40 0.41 0.30 0.26 0.19 0.15 0.12 0.11 0.08 0.05 0.06 0.08 0.07 0.07 0.11 0.16 0.17 0.25 0.32 0.34 0.38 0.37 0.39 0.38 0.36 0.38 0.39 0.36 0.31 0.28 0.27 0.27 0.28 0.27 0.25 0.25 0.28 0.33 0.36 0.47 0.59 0.67
0.05 0.06 0.06 0.05 0.05 0.06 0.11 0.19 0.19 0.20 0.23 0.22 0.19 0.17 0.14 0.10 0.07 0.07 0.07 0.06 0.05 0.10 0.14 0.15 0.19 0.23 0.24 0.32 0.40 0.39 0.40 0.45 0.42 0.37 0.39 0.38 0.38 0.38 0.37 0.33 0.31 0.27 0.23 0.26 0.28 0.30 0.35 0.49 0.65

GEFSSGP_prec_meanprecacc_108.txt.gz
Total_Precipitation_Accumulation
0.00 0.01 0.06 0.20 0.69 0.91 0.80 0.49 0.40 0.32 0.32 0.27 0.29 0.28 0.33 0.46 0.65 0.87 0.41 0.11 0.03 0.01 0.02 0.09 0.15 0.15 0.11 0.10 0.11 0.15 0.15 0.16 0.15 0.14 0.14 0.13 0.10 0.08 0.06 0.06 0.06 0.06 0.06 0.06 0.07 0.08 0.07 0.09 0.13
0.01 0.02 0.08 0.33 0.68 0.76 0.58 0.42 0.35 0.25 0.27 0.32 0.45 0.44 0.35 0.42 0.43 0.36 0.23 0.13 0.05 0.02 0.02 0.04 0.10 0.13 0.12 0.12 0.12 0.14 0.14 0.12 0.12 0.11 0.11 0.11 0.09 0.06 0.06 0.07 0.08 0.08 0.08 0.08 0.08 0.09 0.09 0.10 0.12
0.02 0.05 0.12 0.36 0.48 0.38 0.30 0.20 0.21 0.26 0.35 0.44 0.49 0.50 0.50 0.48 0.38 0.32 0.23 0.15 0.12 0.06 0.04 0.05 0.08 0.10 0.12 0.14 0.13 0.13 0.13 0.12 0.11 0.10 0.10 0.09 0.08 0.07 0.07 0.08 0.09 0.10 0.11 0.12 0.09 0.10 0.12 0.12 0.13
0.03 0.08 0.18 0.27 0.19 0.10 0.10 0.12 0.19 0.32 0.51 0.74 0.73 0.63 0.58 0.40 0.31 0.25 0.29 0.22 0.18 0.11 0.06 0.07 0.10 0.10 0.11 0.12 0.13 0.13 0.12 0.12 0.12 0.11 0.11 0.10 0.09 0.10 0.09 0.09 0.10 0.12 0.14 0.14 0.13 0.14 0.14 0.12 0.13
0.02 0.08 0.19 0.18 0.08 0.06 0.07 0.13 0.23 0.37 0.55 0.73 0.78 0.76 0.73 0.47 0.33 0.30 0.26 0.23 0.22 0.16 0.08 0.08 0.14 0.13 0.13 0.14 0.15 0.15 0.13 0.12 0.12 0.12 0.13 0.13 0.12 0.12 0.12 0.11 0.12 0.12 0.14 0.14 0.16 0.17 0.15 0.13 0.14
0.01 0.04 0.09 0.09 0.05 0.05 0.08 0.15 0.24 0.36 0.54 0.71 0.95 1.01 0.85 0.61 0.55 0.45 0.32 0.29 0.28 0.24 0.14 0.14 0.19 0.20 0.19 0.19 0.20 0.19 0.16 0.14 0.14 0.15 0.16 0.15 0.14 0.15 0.15 0.16 0.16 0.15 0.16 0.17 0.17 0.17 0.17 0.16 0.17
0.00 0.01 0.04 0.06 0.05 0.05 0.08 0.14 0.24 0.38 0.53 0.80 1.09 1.17 0.90 0.68 0.60 0.57 0.50 0.46 0.55 0.46 0.32 0.25 0.23 0.21 0.21 0.25 0.26 0.25 0.21 0.19 0.18 0.19 0.18 0.17 0.16 0.17 0.18 0.21 0.23 0.23 0.22 0.21 0.21 0.21 0.23 0.24 0.24
0.00 0.01 0.03 0.04 0.03 0.05 0.10 0.15 0.28 0.47 0.65 0.87 1.06 1.18 1.17 0.74 0.61 0.70 0.80 0.85 1.02 0.94 0.70 0.49 0.33 0.32 0.26 0.25 0.27 0.28 0.25 0.23 0.22 0.22 0.21 0.22 0.26 0.31 0.36 0.35 0.34 0.34 0.35 0.36 0.38 0.38 0.39 0.42 0.41
0.00 0.01 0.02 0.01 0.02 0.10 0.14 0.17 0.24 0.34 0.53 0.76 0.92 0.99 0.88 0.74 0.83 1.03 1.22 1.02 1.00 1.09 0.90 0.78 0.60 0.41 0.38 0.36 0.33 0.41 0.40 0.41 0.43 0.47 0.45 0.44 0.49 0.63 0.75 0.65 0.64 0.66 0.67 0.71 0.77 0.80 0.81 0.77 0.64
0.00 0.00 0.01 0.00 0.01 0.05 0.11 0.16 0.25 0.34 0.70 1.26 1.29 0.94 0.71 0.85 1.05 1.21 1.34 1.20 1.13 1.13 0.91 0.87 0.85 0.63 0.56 0.52 0.69 0.88 0.81 0.88 0.84 0.96 0.88 0.93 0.97 0.85 0.69 0.79 0.93 1.04 1.23 1.30 1.39 1.44 1.41 1.27 1.06
0.00 0.00 0.00 0.00 0.01 0.01 0.04 0.11 0.20 0.41 0.82 1.46 1.64 1.23 1.03 1.11 1.41 1.38 1.44 1.54 1.58 1.34 1.16 0.89 0.99 0.87 0.85 0.91 1.02 1.15 1.20 1.21 1.17 1.22 1.24 1.36 1.33 1.13 1.02 1.17 1.44 1.59 1.74 1.83 2.07 2.07 1.71 1.70 1.75
0.00 0.00 0.00 0.00 0.01 0.01 0.09 0.15 0.25 0.32 0.74 1.07 1.04 0.95 1.10 1.28 1.54 1.66 1.62 1.79 1.77 1.57 1.48 1.33 1.33 1.28 1.20 1.19 1.17 1.14 1.05 1.07 1.16 1.27 1.36 1.52 1.52 1.54 1.51 1.56 1.64 1.78 2.00 2.25 2.33 2.34 2.21 2.35 2.31
0.00 0.00 0.00 0.02 0.03 0.04 0.10 0.13 0.24 0.38 0.51 0.63 0.60 0.78 1.21 1.47 1.79 2.04 2.30 2.41 2.35 2.27 2.11 2.01 2.00 1.76 1.49 1.31 1.15 1.01 0.93 0.87 0.96 1.06 1.12 1.22 1.46 1.62 1.62 1.46 1.46 1.49 1.74 2.08 2.39 2.44 2.67 2.76 2.55
0.00 0.00 0.01 0.03 0.03 0.05 0.07 0.10 0.26 0.43 0.47 0.59 0.74 0.97 1.34 1.78 2.14 2.33 2.97 3.25 3.34 3.33 3.07 2.75 2.64 2.17 1.83 1.60 1.26 1.09 0.89 0.89 0.90 0.86 0.92 1.10 1.25 1.42 1.39 1.37 1.42 1.47 1.49 1.65 2.04 2.29 2.51 2.46 2.25
0.00 0.02 0.05 0.06 0.04 0.05 0.06 0.17 0.39 0.52 0.70 0.74 0.92 1.15 1.47 2.02 2.46 2.87 3.34 3.92 4.25 4.38 3.97 3.29 2.92 2.55 2.18 1.92 1.51 1.20 1.02 0.90 0.89 0.82 0.83 0.91 0.99 1.12 1.14 1.15 1.15 1.21 1.24 1.26 1.42 1.65 1.81 1.78 1.71
0.01 0.08 0.17 0.11 0.07 0.07 0.11 0.42 0.64 0.55 0.84 1.17 1.10 1.39 1.78 2.26 2.66 3.28 3.91 4.61 5.09 5.20 4.56 3.77 3.08 3.01 2.72 2.32 1.73 1.29 1.03 0.87 0.74 0.69 0.64 0.64 0.67 0.69 0.71 0.72 0.71 0.73 0.74 0.80 0.91 1.03 1.14 1.26 1.42
0.03 0.07 0.15 0.18 0.11 0.10 0.18 0.58 0.75 0.54 0.67 0.98 1.21 1.47 1.89 2.22 2.50 3.05 3.64 4.40 5.00 5.49 5.20 4.43 4.12 3.82 3.09 2.24 1.59 1.19 0.90 0.74 0.62 0.60 0.53 0.50 0.49 0.48 0.51 0.51 0.52 0.47 0.46 0.50 0.52 0.64 0.75 0.87 0.98
0.02 0.04 0.10 0.21 0.17 0.17 0.25 0.44 0.71 0.73 0.88 1.11 1.25 1.40 1.68 1.82 2.02 2.49 3.01 3.43 3.99 4.47 4.32 4.08 4.00 3.40 2.68 1.91 1.43 1.07 0.83 0.67 0.53 0.47 0.46 0.42 0.40 0.40 0.45 0.42 0.39 0.34 0.34 0.39 0.44 0.52 0.53 0.55 0.61
0.02 0.04 0.08 0.15 0.16 0.23 0.36 0.47 0.66 0.82 1.04 1.20 1.22 1.21 1.26 1.37 1.63 1.89 2.23 2.60 2.82 2.96 3.00 3.12 3.09 2.66 2.07 1.57 1.11 0.84 0.72 0.60 0.45 0.34 0.34 0.36 0.35 0.37 0.44 0.36 0.37 0.34 0.30 0.31 0.34 0.38 0.38 0.36 0.35
0.03 0.06 0.11 0.14 0.14 0.19 0.34 0.61 0.76 0.84 0.86 0.93 1.04 1.00 0.98 1.07 1.17 1.29 1.49 1.79 1.88 2.06 2.28 2.42 2.38 2.05 1.52 1.25 0.99 0.85 0.75 0.61 0.47 0.35 0.31 0.28 0.27 0.29 0.34 0.40 0.31 0.31 0.31 0.31 0.30 0.33 0.31 0.27 0.28
0.04 0.05 0.06 0.10 0.11 0.19 0.35 0.85 0.93 0.83 0.74 0.64 0.76 0.79 0.74 0.75 0.77 0.80 0.90 1.09 1.37 1.77 1.84 1.74 1.74 1.62 1.32 1.16 0.99 0.88 0.80 0.67 0.53 0.41 0.32 0.25 0.22 0.23 0.26 0.29 0.30 0.33 0.28 0.31 0.36 0.34 0.32 0.25 0.22
0.04 0.03 0.02 0.02 0.07 0.30 0.42 0.86 0.95 0.81 0.80 0.61 0.57 0.56 0.45 0.39 0.44 0.55 0.61 0.72 0.94 1.20 1.40 1.52 1.52 1.46 1.21 1.01 0.82 0.67 0.55 0.45 0.37 0.32 0.31 0.26 0.24 0.20 0.18 0.17 0.21 0.28 0.29 0.36 0.28 0.31 0.34 0.30 0.23
0.01 0.01 0.01 0.03 0.10 0.27 0.40 0.73 0.94 0.76 0.84 0.59 0.38 0.26 0.18 0.16 0.21 0.34 0.44 0.53 0.63 0.79 1.06 1.27 1.45 1.53 1.23 0.96 0.78 0.67 0.57 0.47 0.40 0.34 0.34 0.28 0.27 0.25 0.21 0.19 0.18 0.19 0.23 0.29 0.31 0.37 0.35 0.35 0.30
0.01 0.02 0.08 0.17 0.29 0.61 0.60 0.59 0.88 0.66 0.45 0.27 0.18 0.11 0.09 0.09 0.13 0.22 0.28 0.38 0.52 0.63 0.77 0.92 1.12 1.31 1.21 0.99 0.80 0.70 0.64 0.56 0.47 0.36 0.31 0.30 0.32 0.33 0.31 0.28 0.28 0.27 0.24 0.21 0.22 0.26 0.33 0.38 0.39
0.02 0.03 0.16 0.37 0.63 0.82 0.49 0.62 0.96 0.52 0.31 0.18 0.12 0.09 0.06 0.06 0.08 0.12 0.17 0.22 0.37 0.46 0.49 0.55 0.74 0.90 0.91 0.85 0.77 0.71 0.74 0.71 0.62 0.49 0.40 0.36 0.33 0.34 0.34 0.32 0.32 0.34 0.33 0.29 0.23 0.19 0.23 0.31 0.36
0.02 0.02 0.06 0.12 0.24 0.40 0.47 1.07 0.89 0.32 0.19 0.16 0.11 0.09 0.07 0.07 0.06 0.06 0.09 0.16 0.23 0.29 0.34 0.38 0.51 0.64 0.71 0.67 0.67 0.64 0.61 0.56 0.58 0.60 0.50 0.44 0.42 0.38 0.34 0.32 0.30 0.32 0.35 0.36 0.32 0.26 0.24 0.25 0.29
0.02 0.02 0.03 0.04 0.06 0.24 0.57 0.76 0.46 0.18 0.15 0.16 0.12 0.09 0.08 0.10 0.08 0.06 0.07 0.12 0.15 0.19 0.23 0.27 0.38 0.48 0.53 0.54 0.55 0.53 0.52 0.47 0.46 0.43 0.38 0.35 0.44 0.44 0.38 0.33 0.30 0.31 0.33 0.36 0.37 0.35 0.33 0.30 0.27
0.03 0.02 0.02 0.02 0.05 0.17 0.42 0.65 0.64 0.35 0.25 0.21 0.16 0.10 0.08 0.08 0.08 0.09 0.10 0.11 0.13 0.17 0.22 0.25 0.31 0.39 0.43 0.47 0.46 0.46 0.52 0.52 0.53 0.46 0.40 0.33 0.32 0.34 0.37 0.36 0.31 0.29 0.31 0.36 0.40 0.43 0.47 0.48 0.43
0.04 0.03 0.03 0.03 0.04 0.09 0.27 0.40 0.41 0.30 0.27 0.20 0.15 0.13 0.11 0.09 0.07 0.09 0.10 0.09 0.11 0.15 0.19 0.19 0.28 0.35 0.39 0.45 0.47 0.49 0.50 0.50 0.52 0.54 0.50 0.41 0.36 0.34 0.33 0.33 0.30 0.27 0.26 0.30 0.35 0.38 0.48 0.60 0.68
0.05 0.06 0.06 0.05 0.05 0.06 0.11 0.19 0.20 0.20 0.24 0.23 0.19 0.18 0.14 0.10 0.07 0.09 0.10 0.09 0.08 0.12 0.16 0.17 0.21 0.25 0.28 0.37 0.47 0.47 0.49 0.55 0.52 0.48 0.53 0.52 0.49 0.48 0.45 0.40 0.36 0.32 0.27 0.28 0.31 0.33 0.38 0.50 0.67

GEFSSGP_prec_meanprecacc_114.txt.gz
Total_Precipitation_Accumulation
0.00 0.01 0.06 0.20 0.69 0.91 0.80 0.49 0.40 0.32 0.32 0.27 0.29 0.28 0.34 0.47 0.66 0.89 0.41 0.11 0.03 0.01 0.02 0.09 0.16 0.16 0.12 0.11 0.12 0.15 0.16 0.16 0.15 0.14 0.14 0.14 0.11 0.08 0.07 0.07 0.08 0.08 0.09 0.08 0.11 0.13 0.11 0.15 0.19
0.01 0.02 0.08 0.33 0.68 0.76 0.58 0.42 0.35 0.25 0.27 0.32 0.45 0.44 0.35 0.43 0.43 0.36 0.23 0.13 0.05 0.02 0.03 0.04 0.11 0.14 0.12 0.12 0.13 0.15 0.14 0.13 0.12 0.11 0.11 0.11 0.09 0.07 0.07 0.08 0.09 0.10 0.10 0.10 0.12 0.13 0.12 0.14 0.18
0.02 0.05 0.12 0.36 0.48 0.38 0.30 0.20 0.21 0.26 0.35 0.44 0.49 0.50 0.51 0.48 0.38 0.32 0.23 0.15 0.12 0.06 0.04 0.06 0.09 0.11 0.12 0.14 0.13 0.13 0.13 0.12 0.11 0.10 0.11 0.10 0.09 0.08 0.08 0.10 0.10 0.12 0.14 0.14 0.12 0.12 0.15 0.16 0.18
0.03 0.08 0.18 0.27 0.19 0.10 0.10 0.12 0.19 0.32 0.51 0.74 0.73 0.64 0.59 0.40 0.31 0.25 0.29 0.22 0.18 0.11 0.06 0.08 0.12 0.11 0.11 0.12 0.13 0.13 0.12 0.12 0.13 0.12 0.11 0.10 0.10 0.11 0.10 0.10 0.11 0.14 0.17 0.17 0.16 0.17 0.17 0.16 0.17
0.02 0.08 0.19 0.18 0.08 0.06 0.07 0.13 0.23 0.37 0.55 0.74 0.78 0.76 0.74 0.48 0.33 0.30 0.26 0.23 0.22 0.16 0.09 0.10 0.16 0.15 0.14 0.14 0.16 0.15 0.13 0.13 0.12 0.12 0.13 0.13 0.13 0.13 0.13 0.12 0.13 0.14 0.16 0.17 0.19 0.19 0.18 0.17 0.19
0.01 0.04 0.09 0.09 0.05 0.05 0.08 0.15 0.24 0.36 0.54 0.72 0.96 1.02 0.85 0.61 0.55 0.45 0.32 0.29 0.28 0.24 0.15 0.17 0.23 0.23 0.20 0.19 0.21 0.20 0.17 0.15 0.15 0.16 0.17 0.16 0.15 0.16 0.17 0.18 0.17 0.17 0.19 0.19 0.19 0.20 0.20 0.19 0.22
0.00 0.01 0.04 0.06 0.05 0.05 0.08 0.14 0.24 0.38 0.53 0.81 1.10 1.18 0.90 0.68 0.60 0.57 0.51 0.46 0.56 0.48 0.35 0.29 0.28 0.26 0.24 0.26 0.27 0.25 0.22 0.19 0.19 0.21 0.19 0.18 0.17 0.19 0.20 0.23 0.25 0.25 0.25 0.23 0.23 0.24 0.26 0.27 0.30
0.00 0.01 0.03 0.04 0.03 0.05 0.10 0.15 0.28 0.47 0.65 0.88 1.06 1.19 1.18 0.74 0.63 0.73 0.84 0.87 1.05 0.99 0.75 0.54 0.38 0.38 0.30 0.28 0.29 0.29 0.26 0.24 0.24 0.23 0.22 0.24 0.28 0.33 0.38 0.37 0.35 0.36 0.37 0.38 0.40 0.39 0.41 0.46 0.49
0.00 0.01 0.02 0.01 0.02 0.10 0.14 0.17 0.24 0.34 0.53 0.76 0.92 1.00 0.88 0.77 0.92 1.08 1.28 1.06 1.06 1.18 1.00 0.88 0.68 0.48 0.45 0.40 0.36 0.43 0.43 0.43 0.44 0.49 0.46 0.47 0.54 0.67 0.77 0.66 0.66 0.67 0.69 0.72 0.79 0.82 0.83 0.80 0.70
0.00 0.00 0.01 0.00 0.01 0.05 0.11 0.16 0.25 0.34 0.70 1.27 1.30 0.94 0.71 0.87 1.11 1.26 1.38 1.24 1.20 1.22 1.03 0.99 0.97 0.72 0.62 0.56 0.74 0.93 0.86 0.92 0.88 1.00 0.91 0.98 1.02 0.89 0.70 0.80 0.95 1.06 1.25 1.32 1.41 1.47 1.44 1.29 1.10
0.00 0.00 0.00 0.00 0.01 0.01 0.04 0.11 0.20 0.41 0.82 1.46 1.64 1.23 1.04 1.12 1.44 1.42 1.48 1.59 1.63 1.46 1.34 0.99 1.09 0.97 0.92 0.96 1.06 1.20 1.26 1.27 1.22 1.26 1.28 1.41 1.37 1.15 1.03 1.21 1.48 1.63 1.77 1.87 2.08 2.09 1.74 1.73 1.82
0.00 0.00 0.00 0.00 0.01 0.01 0.09 0.15 0.25 0.32 0.74 1.07 1.04 0.95 1.10 1.29 1.57 1.70 1.68 1.86 1.86 1.68 1.61 1.43 1.41 1.37 1.29 1.27 1.22 1.17 1.09 1.12 1.20 1.30 1.39 1.54 1.54 1.56 1.53 1.59 1.68 1.83 2.06 2.30 2.36 2.37 2.24 2.38 2.35
0.00 0.00 0.00 0.02 0.03 0.04 0.10 0.13 0.24 0.38 0.51 0.63 0.60 0.79 1.21 1.47 1.80 2.06 2.34 2.47 2.41 2.34 2.20 2.11 2.10 1.84 1.57 1.41 1.22 1.05 0.96 0.91 0.98 1.08 1.15 1.23 1.48 1.63 1.64 1.48 1.49 1.52 1.77 2.12 2.43 2.48 2.70 2.79 2.59
0.00 0.00 0.01 0.03 0.03 0.05 0.07 0.10 0.26 0.43 0.47 0.59 0.74 0.97 1.34 1.78 2.15 2.35 3.00 3.29 3.38 3.37 3.13 2.83 2.74 2.28 1.93 1.67 1.33 1.14 0.93 0.93 0.92 0.88 0.94 1.13 1.29 1.45 1.41 1.40 1.47 1.51 1.52 1.69 2.08 2.33 2.54 2.51 2.31
0.00 0.02 0.05 0.06 0.04 0.05 0.06 0.17 0.39 0.52 0.70 0.74 0.92 1.15 1.47 2.02 2.46 2.88 3.35 3.96 4.30 4.42 4.02 3.35 3.01 2.67 2.30 1.99 1.57 1.26 1.07 0.94 0.92 0.84 0.86 0.95 1.04 1.18 1.19 1.21 1.19 1.25 1.27 1.31 1.46 1.69 1.85 1.83 1.77
0.01 0.08 0.17 0.11 0.07 0.07 0.11 0.42 0.64 0.55 0.84 1.17 1.10 1.39 1.78 2.26 2.67 3.29 3.93 4.64 5.14 5.23 4.60 3.83 3.14 3.12 2.83 2.41 1.78 1.34 1.08 0.92 0.78 0.72 0.67 0.68 0.71 0.74 0.77 0.77 0.75 0.76 0.77 0.83 0.96 1.08 1.20 1.33 1.48
0.03 0.07 0.15 0.18 0.11 0.10 0.18 0.58 0.75 0.54 0.67 0.98 1.21 1.47 1.89 2.22 2.50 3.06 3.66 4.43 5.04 5.53 5.25 4.49 4.19 3.91 3.20 2.34 1.67 1.24 0.96 0.79 0.67 0.64 0.56 0.54 0.52 0.53 0.59 0.58 0.57 0.49 0.49 0.54 0.56 0.71 0.82 0.95 1.06
0.02 0.04 0.10 0.21 0.17 0.17 0.25 0.44 0.71 0.73 0.88 1.11 1.25 1.40 1.68 1.83 2.03 2.51 3.02 3.46 4.04 4.53 4.37 4.14 4.08 3.50 2.80 2.04 1.54 1.14 0.89 0.73 0.57 0.51 0.51 0.48 0.46 0.46 0.53 0.49 0.44 0.37 0.38 0.44 0.51 0.60 0.62 0.63 0.68
0.02 0.04 0.08 0.15 0.16 0.23 0.36 0.47 0.66 0.82 1.04 1.20 1.22 1.21 1.26 1.38 1.64 1.90 2.25 2.62 2.85 3.02 3.06 3.20 3.22 2.79 2.20 1.69 1.19 0.91 0.78 0.65 0.50 0.38 0.38 0.42 0.40 0.44 0.51 0.41 0.42 0.39 0.35 0.39 0.41 0.46 0.47 0.44 0.42
0.03 0.06 0.11 0.14 0.14 0.19 0.34 0.61 0.76 0.84 0.86 0.93 1.04 1.00 0.99 1.08 1.18 1.30 1.50 1.81 1.90 2.10 2.33 2.52 2.57 2.27 1.69 1.37 1.09 0.94 0.83 0.68 0.54 0.41 0.36 0.34 0.33 0.35 0.39 0.46 0.36 0.35 0.36 0.37 0.37 0.41 0.39 0.33 0.35
0.04 0.05 0.06 0.10 0.11 0.19 0.35 0.85 0.93 0.83 0.74 0.64 0.76 0.79 0.74 0.75 0.77 0.81 0.90 1.10 1.39 1.80 1.89 1.83 1.89 1.85 1.53 1.30 1.13 1.00 0.90 0.75 0.60 0.47 0.37 0.29 0.28 0.30 0.32 0.34 0.34 0.36 0.31 0.36 0.44 0.41 0.39 0.32 0.27
0.04 0.03 0.02 0.02 0.07 0.30 0.42 0.86 0.95 0.81 0.80 0.61 0.57 0.56 0.46 0.39 0.44 0.56 0.62 0.73 0.95 1.22 1.43 1.58 1.61 1.57 1.32 1.12 0.95 0.80 0.64 0.52 0.42 0.38 0.37 0.33 0.30 0.27 0.24 0.22 0.26 0.32 0.32 0.41 0.33 0.35 0.39 0.37 0.28
0.01 0.01 0.01 0.03 0.10 0.27 0.40 0.73 0.94 0.76 0.84 0.59 0.38 0.26 0.18 0.16 0.21 0.34 0.44 0.54 0.65 0.82 1.09 1.33 1.55 1.65 1.33 1.04 0.86 0.76 0.64 0.53 0.47 0.42 0.44 0.38 0.36 0.32 0.26 0.23 0.24 0.24 0.26 0.32 0.34 0.41 0.38 0.38 0.34
0.01 0.02 0.08 0.17 0.29 0.61 0.60 0.59 0.88 0.66 0.45 0.27 0.18 0.11 0.09 0.09 0.13 0.22 0.29 0.40 0.55 0.66 0.80 0.99 1.21 1.40 1.29 1.08 0.88 0.79 0.72 0.63 0.53 0.43 0.40 0.38 0.39 0.38 0.35 0.32 0.32 0.32 0.27 0.24 0.26 0.30 0.37 0.42 0.43
0.02 0.03 0.16 0.37 0.63 0.82 0.49 0.62 0.96 0.52 0.31 0.18 0.13 0.09 0.06 0.06 0.08 0.12 0.17 0.23 0.38 0.47 0.51 0.60 0.81 0.97 0.99 0.93 0.85 0.78 0.81 0.78 0.68 0.57 0.47 0.42 0.38 0.38 0.38 0.36 0.37 0.38 0.37 0.32 0.27 0.23 0.27 0.35 0.40
0.02 0.02 0.06 0.12 0.24 0.40 0.47 1.07 0.89 0.32 0.19 0.16 0.11 0.09 0.07 0.07 0.06 0.07 0.09 0.16 0.24 0.30 0.36 0.43 0.55 0.68 0.74 0.73 0.73 0.70 0.68 0.63 0.65 0.67 0.57 0.50 0.46 0.41 0.38 0.36 0.34 0.35 0.38 0.39 0.36 0.30 0.28 0.29 0.32
0.02 0.02 0.03 0.04 0.06 0.24 0.57 0.76 0.46 0.18 0.15 0.16 0.12 0.10 0.08 0.10 0.08 0.06 0.08 0.12 0.15 0.19 0.25 0.30 0.41 0.52 0.56 0.58 0.61 0.60 0.61 0.56 0.55 0.53 0.49 0.43 0.49 0.48 0.43 0.37 0.35 0.36 0.37 0.39 0.40 0.39 0.37 0.34 0.30
0.03 0.02 0.02 0.02 0.05 0.17 0.42 0.65 0.64 0.35 0.25 0.21 0.16 0.11 0.08 0.08 0.08 0.09 0.11 0.12 0.13 0.17 0.23 0.26 0.33 0.41 0.46 0.50 0.50 0.51 0.61 0.62 0.64 0.57 0.50 0.42 0.39 0.38 0.40 0.40 0.37 0.34 0.37 0.40 0.43 0.47 0.52 0.52 0.46
0.04 0.03 0.03 0.03 0.04 0.09 0.27 0.40 0.41 0.30 0.27 0.20 0.15 0.13 0.11 0.09 0.07 0.09 0.10 0.10 0.11 0.16 0.19 0.20 0.29 0.37 0.42 0.48 0.51 0.54 0.57 0.61 0.66 0.66 0.62 0.54 0.47 0.41 0.38 0.39 0.36 0.32 0.32 0.35 0.38 0.42 0.53 0.65 0.72
0.05 0.06 0.06 0.05 0.05 0.06 0.11 0.19 0.20 0.20 0.24 0.23 0.19 0.18 0.14 0.10 0.08 0.09 0.10 0.09 0.08 0.13 0.16 0.18 0.22 0.27 0.29 0.39 0.51 0.51 0.56 0.64 0.63 0.61 0.68 0.67 0.63 0.58 0.53 0.48 0.44 0.38 0.32 0.33 0.35 0.38 0.43 0.57 0.73

GEFSSGP_prec_meanprecacc_120.txt.gz
Total_Precipitation_Accumulation
0.00 0.02 0.06 0.21 0.75 1.00 0.81 0.49 0.40 0.32 0.32 0.27 0.29 0.28 0.34 0.47 0.68 0.96 0.44 0.12 0.03 0.01 0.02 0.09 0.17 0.16 0.12 0.12 0.13 0.16 0.17 0.17 0.16 0.15 0.15 0.15 0.13 0.10 0.08 0.09 0.10 0.11 0.11 0.11 0.15 0.17 0.14 0.20 0.26
0.01 0.02 0.10 0.36 0.75 0.80 0.58 0.42 0.35 0.25 0.27 0.32 0.45 0.44 0.35 0.43 0.44 0.36 0.23 0.14 0.05 0.02 0.03 0.04 0.11 0.14 0.13 0.13 0.14 0.16 0.15 0.14 0.13 0.12 0.12 0.13 0.11 0.09 0.09 0.10 0.11 0.12 0.11 0.12 0.17 0.16 0.15 0.18 0.23
0.02 0.05 0.14 0.39 0.50 0.39 0.31 0.20 0.21 0.26 0.35 0.44 0.50 0.51 0.51 0.48 0.38 0.33 0.24 0.15 0.12 0.07 0.04 0.06 0.09 0.11 0.13 0.14 0.14 0.15 0.14 0.13 0.12 0.12 0.12 0.11 0.10 0.10 0.10 0.11 0.12 0.14 0.16 0.17 0.15 0.16 0.18 0.19 0.22
0.03 0.09 0.21 0.30 0.20 0.10 0.10 0.12 0.19 0.32 0.51 0.74 0.74 0.65 0.59 0.40 0.31 0.26 0.29 0.22 0.18 0.11 0.06 0.08 0.12 0.11 0.12 0.13 0.14 0.14 0.13 0.13 0.13 0.13 0.13 0.12 0.11 0.13 0.12 0.11 0.13 0.16 0.19 0.20 0.20 0.22 0.20 0.19 0.20
0.03 0.10 0.25 0.21 0.08 0.06 0.07 0.13 0.23 0.37 0.55 0.74 0.79 0.78 0.75 0.48 0.33 0.30 0.27 0.26 0.22 0.16 0.09 0.10 0.16 0.15 0.14 0.14 0.16 0.16 0.14 0.14 0.13 0.13 0.15 0.15 0.15 0.15 0.15 0.14 0.15 0.16 0.18 0.20 0.22 0.23 0.21 0.20 0.21
0.01 0.06 0.12 0.11 0.06 0.05 0.08 0.15 0.25 0.37 0.55 0.72 0.96 1.03 0.86 0.61 0.55 0.45 0.32 0.35 0.30 0.25 0.16 0.17 0.23 0.24 0.21 0.20 0.21 0.21 0.18 0.16 0.16 0.17 0.19 0.19 0.17 0.18 0.19 0.20 0.19 0.18 0.21 0.23 0.21 0.22 0.22 0.22 0.25
0.00 0.02 0.05 0.07 0.05 0.05 0.08 0.14 0.24 0.40 0.54 0.81 1.10 1.20 0.93 0.70 0.61 0.58 0.51 0.50 0.59 0.50 0.38 0.31 0.29 0.28 0.25 0.27 0.28 0.27 0.23 0.21 0.21 0.22 0.21 0.20 0.19 0.21 0.22 0.25 0.26 0.26 0.27 0.26 0.25 0.25 0.27 0.29 0.32
0.00 0.01 0.03 0.04 0.03 0.05 0.10 0.15 0.28 0.48 0.66 0.88 1.07 1.20 1.20 0.78 0.64 0.74 0.86 0.92 1.10 1.02 0.80 0.58 0.39 0.40 0.33 0.30 0.31 0.31 0.27 0.26 0.25 0.25 0.24 0.25 0.29 0.35 0.39 0.38 0.36 0.38 0.40 0.41 0.42 0.41 0.42 0.47 0.51
0.00 0.01 0.02 0.01 0.02 0.10 0.14 0.17 0.24 0.34 0.54 0.77 0.93 1.01 0.90 0.80 0.94 1.10 1.32 1.14 1.12 1.25 1.08 0.96 0.74 0.53 0.51 0.45 0.38 0.46 0.45 0.44 0.46 0.51 0.47 0.50 0.63 0.73 0.80 0.68 0.67 0.69 0.73 0.75 0.80 0.83 0.84 0.81 0.71
0.00 0.01 0.01 0.00 0.01 0.05 0.11 0.16 0.25 0.34 0.73 1.31 1.31 0.96 0.74 0.92 1.15 1.30 1.43 1.32 1.25 1.28 1.11 1.11 1.06 0.79 0.68 0.62 0.78 0.98 0.90 0.95 0.93 1.06 0.95 1.10 1.18 1.04 0.78 0.83 0.96 1.07 1.27 1.35 1.43 1.49 1.46 1.34 1.13
0.00 0.00 0.00 0.00 0.01 0.01 0.04 0.11 0.20 0.41 0.84 1.47 1.65 1.24 1.05 1.15 1.47 1.47 1.53 1.65 1.69 1.52 1.40 1.07 1.22 1.07 0.99 1.06 1.13 1.24 1.33 1.33 1.30 1.35 1.36 1.54 1.47 1.22 1.08 1.24 1.51 1.67 1.82 1.95 2.11 2.12 1.80 1.84 1.92
0.00 0.00 0.00 0.00 0.01 0.01 0.09 0.15 0.25 0.32 0.74 1.07 1.05 0.95 1.11 1.31 1.60 1.75 1.73 1.91 1.92 1.77 1.69 1.49 1.52 1.51 1.42 1.38 1.30 1.23 1.14 1.16 1.26 1.39 1.46 1.61 1.64 1.65 1.60 1.67 1.75 1.92 2.18 2.45 2.46 2.48 2.35 2.49 2.42
0.00 0.00 0.00 0.02 0.03 0.04 0.10 0.13 0.24 0.38 0.51 0.63 0.60 0.79 1.21 1.49 1.84 2.11 2.39 2.53 2.50 2.46 2.33 2.19 2.20 1.99 1.74 1.55 1.33 1.12 1.03 0.95 1.02 1.14 1.21 1.28 1.54 1.70 1.71 1.56 1.57 1.61 1.86 2.22 2.55 2.58 2.80 2.89 2.67
0.00 0.00 0.01 0.03 0.03 0.05 0.07 0.10 0.26 0.43 0.47 0.59 0.74 0.98 1.35 1.78 2.16 2.38 3.05 3.35 3.48 3.45 3.24 2.93 2.84 2.42 2.08 1.80 1.44 1.24 1.01 0.98 0.97 0.91 0.98 1.17 1.34 1.53 1.49 1.47 1.54 1.61 1.61 1.77 2.16 2.40 2.62 2.59 2.38
0.00 0.02 0.05 0.06 0.04 0.05 0.06 0.17 0.40 0.52 0.70 0.74 0.92 1.15 1.47 2.02 2.47 2.90 3.39 4.01 4.37 4.49 4.10 3.45 3.10 2.79 2.45 2.12 1.67 1.34 1.13 0.97 0.96 0.87 0.89 0.98 1.09 1.24 1.26 1.29 1.26 1.31 1.33 1.36 1.51 1.74 1.91 1.90 1.83
0.01 0.08 0.18 0.11 0.07 0.07 0.11 0.42 0.65 0.55 0.84 1.17 1.11 1.39 1.79 2.26 2.67 3.30 3.96 4.70 5.21 5.31 4.68 3.92 3.22 3.20 2.96 2.56 1.91 1.44 1.15 0.97 0.83 0.75 0.71 0.70 0.76 0.79 0.82 0.84 0.81 0.81 0.80 0.86 1.01 1.13 1.27 1.41 1.56
0.03 0.07 0.15 0.18 0.11 0.10 0.18 0.58 0.76 0.54 0.67 0.99 1.24 1.48 1.89 2.23 2.51 3.07 3.69 4.49 5.10 5.59 5.31 4.58 4.30 4.02 3.34 2.50 1.82 1.35 1.05 0.86 0.71 0.68 0.61 0.59 0.57 0.57 0.63 0.66 0.66 0.54 0.51 0.56 0.59 0.77 0.90 1.04 1.15
0.02 0.04 0.10 0.21 0.17 0.17 0.26 0.45 0.71 0.73 0.88 1.11 1.26 1.41 1.69 1.83 2.04 2.52 3.07 3.52 4.09 4.58 4.41 4.21 4.18 3.61 2.94 2.21 1.71 1.30 1.01 0.80 0.62 0.55 0.57 0.54 0.52 0.51 0.57 0.53 0.51 0.41 0.42 0.49 0.57 0.70 0.71 0.72 0.76
0.02 0.04 0.08 0.15 0.16 0.23 0.36 0.48 0.67 0.82 1.04 1.20 1.23 1.22 1.27 1.39 1.66 1.93 2.29 2.67 2.89 3.06 3.10 3.26 3.31 2.89 2.32 1.83 1.34 1.05 0.90 0.74 0.55 0.42 0.42 0.46 0.44 0.49 0.55 0.47 0.51 0.43 0.40 0.42 0.44 0.52 0.55 0.53 0.49
0.03 0.06 0.11 0.14 0.14 0.19 0.34 0.62 0.77 0.84 0.86 0.93 1.04 1.00 0.99 1.08 1.20 1.33 1.52 1.83 1.93 2.13 2.38 2.59 2.67 2.38 1.78 1.49 1.22 1.11 0.97 0.77 0.59 0.46 0.43 0.38 0.37 0.40 0.42 0.51 0.41 0.39 0.40 0.40 0.40 0.47 0.47 0.42 0.41
0.04 0.05 0.06 0.10 0.11 0.19 0.35 0.86 0.95 0.83 0.74 0.64 0.76 0.79 0.74 0.76 0.79 0.83 0.93 1.12 1.40 1.84 1.94 1.89 1.99 1.98 1.65 1.45 1.29 1.16 1.06 0.86 0.69 0.54 0.45 0.36 0.33 0.35 0.37 0.38 0.39 0.44 0.34 0.40 0.48 0.46 0.45 0.42 0.36
0.04 0.03 0.02 0.02 0.07 0.30 0.42 0.86 0.96 0.83 0.82 0.61 0.57 0.56 0.46 0.41 0.50 0.60 0.68 0.78 0.97 1.27 1.50 1.67 1.76 1.72 1.48 1.31 1.11 0.92 0.75 0.63 0.52 0.47 0.45 0.42 0.38 0.33 0.30 0.28 0.33 0.40 0.38 0.49 0.38 0.40 0.45 0.44 0.36
0.01 0.01 0.01 0.03 0.10 0.27 0.40 0.73 0.94 0.76 0.86 0.60 0.38 0.26 0.18 0.17 0.23 0.36 0.52 0.64 0.68 0.87 1.21 1.52 1.72 1.82 1.53 1.21 0.98 0.86 0.74 0.65 0.57 0.51 0.55 0.48 0.44 0.39 0.32 0.31 0.32 0.32 0.33 0.39 0.40 0.50 0.45 0.45 0.40
0.01 0.02 0.08 0.17 0.29 0.61 0.60 0.59 0.88 0.66 0.45 0.28 0.18 0.11 0.09 0.09 0.13 0.23 0.30 0.42 0.56 0.69 0.89 1.09 1.30 1.49 1.40 1.19 1.00 0.89 0.83 0.77 0.65 0.53 0.49 0.45 0.46 0.46 0.42 0.39 0.40 0.39 0.34 0.32 0.32 0.38 0.43 0.50 0.52
0.02 0.03 0.16 0.37 0.63 0.82 0.49 0.62 0.96 0.52 0.31 0.18 0.13 0.09 0.06 0.06 0.08 0.12 0.18 0.24 0.39 0.49 0.55 0.65 0.88 1.07 1.09 1.05 0.96 0.86 0.90 0.89 0.80 0.67 0.58 0.53 0.46 0.45 0.45 0.43 0.45 0.45 0.45 0.39 0.35 0.31 0.35 0.43 0.48
0.02 0.02 0.06 0.12 0.25 0.41 0.48 1.08 0.90 0.32 0.19 0.16 0.11 0.09 0.07 0.07 0.07 0.08 0.11 0.17 0.25 0.32 0.39 0.48 0.63 0.78 0.83 0.82 0.83 0.80 0.75 0.69 0.74 0.78 0.67 0.59 0.54 0.48 0.45 0.44 0.41 0.43 0.45 0.45 0.45 0.35 0.33 0.36 0.39
0.02 0.02 0.03 0.04 0.06 0.25 0.58 0.76 0.47 0.19 0.15 0.16 0.12 0.10 0.09 0.10 0.10 0.09 0.14 0.18 0.16 0.20 0.26 0.33 0.46 0.58 0.64 0.69 0.73 0.70 0.69 0.64 0.66 0.66 0.61 0.55 0.60 0.57 0.52 0.45 0.42 0.43 0.44 0.46 0.48 0.46 0.44 0.43 0.38
0.03 0.02 0.02 0.02 0.05 0.18 0.42 0.66 0.65 0.36 0.25 0.21 0.16 0.11 0.08 0.11 0.12 0.10 0.13 0.20 0.16 0.18 0.24 0.28 0.36 0.45 0.54 0.60 0.60 0.57 0.69 0.70 0.74 0.69 0.61 0.53 0.49 0.48 0.50 0.49 0.44 0.41 0.43 0.47 0.51 0.55 0.61 0.61 0.54
0.04 0.03 0.03 0.03 0.04 0.09 0.27 0.41 0.42 0.32 0.28 0.21 0.15 0.13 0.11 0.10 0.08 0.09 0.11 0.11 0.12 0.16 0.20 0.22 0.32 0.41 0.49 0.56 0.59 0.62 0.64 0.68 0.73 0.76 0.74 0.67 0.59 0.52 0.49 0.49 0.46 0.41 0.41 0.44 0.47 0.52 0.64 0.75 0.82
0.05 0.06 0.06 0.05 0.05 0.06 0.11 0.20 0.20 0.21 0.24 0.23 0.19 0.18 0.14 0.10 0.08 0.09 0.10 0.09 0.09 0.13 0.17 0.19 0.24 0.30 0.34 0.46 0.59 0.60 0.64 0.73 0.73 0.71 0.80 0.81 0.77 0.72 0.66 0.60 0.56 0.49 0.42 0.44 0.46 0.48 0.53 0.66 0.84